コワルスキー彗星

384P/Kowalski (2024)

English version
Home page
Updated on May 13, 2024

---------------------------------------------------------------------

・ プロフィール

・ 軌道要素

Epoch 2024 Sept. 7.0 TT = JDT 2460560.5                                         
T 2024 Sept. 19.14367 TT                                Bell                    
q   1.1120839            (2000.0)            P               Q                  
n   0.19974807     Peri.   37.71308     +0.84835643     -0.52927045             
a   2.8983288      Node   354.19954     +0.44965170     +0.73309012             
e   0.6163017      Incl.    7.28330     +0.27947221     +0.42714360             
P   4.93                                                                        
From 534 observations 2014 Oct. 18-2020 Jan. 20, mean residual 0".5.            

・ 光度変化

        m1 = 19.0 + 5 logΔ + 10.0 log r(t - 30)

---------------------------------------------------------------------

軌道要素はM.P.E.C. 2020-C98に掲載されたものです。
光度グラフはComet for Windowsで作成したものです。

---------------------------------------------------------------------

Copyright(C) Seiichi Yoshida (comet@aerith.net). All rights reserved.